Zurück zum Katalog

OPS 9325

IDSCS 12

AktivMilitärMEO
NORAD 2652·PAYLOAD·🇺🇸 United States

Gestartet Jan 18, 1967 von Cape Canaveral Space Force Station

Loading…

Nächste Überflüge (nächste 24 Stunden)

TLE

AktuellSource: Space-Track

Epoche: Sep 10, 2026, 04:52 UTC

1 02652U 67003E   26253.20346773 -.00000079  00000-0  00000-0 0  9998
2 02652   8.4195  44.8994 0037810  85.3583 275.2003  1.07942290141035

Verfolge OPS 9325 in Echtzeit mit AllMySat

Download on the App Store